Location: Spruce Knob
(38.6995°N, 79.5330°W)
Time: 12:12:50
(UTC-05:00)

Envisat - Pass Details

Date: 29 November 2021
Orbit: 764 x 766 km, 98.2° (Epoch: 23 January)

Event Time Altitude Azimuth Distance (km) Brightness Sun altitude
Rises 05:20:02 0° 12° (NNE) 3,238 6.3 -22.1°
Reaches altitude 10° 05:22:21 10° 12° (NNE) 2,307 5.5 -21.6°
Maximum altitude 05:27:27 89° 280° (W) 769 2.9 -20.7°
Drops below altitude 10° 05:32:30 10° 195° (SSW) 2,291 5.4 -19.7°
Sets 05:34:48 0° 195° (SSW) 3,212 6.2 -19.3°
